Location: Tamazert
(32.6352°N, 5.2072°W)
Time: 23:40:39
(UTC+00:00)

Vanguard 1 Rocket - Pass Details

Date: 15 October 2022
Orbit: 650 x 4225 km, 34.3° (Epoch: 05 December)

Event Time Altitude Azimuth Distance (km) Brightness Sun altitude
Rises 18:37:03 0° 265° (W) 8,356 14.6 -11.1°
Reaches altitude 10° 18:42:47 10° 266° (W) 7,419 13.6 -12.3°
Maximum altitude 19:09:17 85° 358° (N) 3,518 10.2 -17.9°
Enters shadow 19:21:33 26° 86° (E) 4,197 10.1 -20.4°
